Location: Newark
(45.5000°N, 11.4167°E)
Time: 00:20:49
(UTC+00:00)

Explorer 11/Cluster Stage 4 - Pass Details

Date: 23 August 2019
Orbit: 467 x 1260 km, 28.8° (Epoch: 20 September)

Event Time Altitude Azimuth Distance (km) Brightness Sun altitude
Rises 09:36:07 0° 220° (SW) 4,122 10.4 49.7°
Reaches altitude 10° 09:40:04 10° 202° (SSW) 3,212 10.1 50.2°
Maximum altitude 09:45:07 18° 164° (SSE) 2,674 10.3 50.7°
Drops below altitude 10° 09:50:08 10° 126° (SE) 3,186 10.5 51.2°
Sets 09:54:01 0° 108° (ESE) 4,078 10.7 51.6°
